Regional Weather Roundup
Issued by NWS Midland/Odessa, TX

Skip options and go directly to product.
Home | Oldest Version | Next Version | Current Version | All | Text Only | Save Text | Print | Product List | Glossary On

Skip product version selection by date and time.   
227
ASUS44 KMAF 102301
RWRMAF
MIDLAND AREA WEATHER ROUNDUP
NATIONAL WEATHER SERVICE MIDLAND TX
500 PM CST WED FEB 10 2016

...IN SOUTHWEST TEXAS AND SOUTHEAST NEW MEXICO...

CITY           SKY/WX    TMP DP  RH WIND       PRES   REMARKS
ALPINE         SUNNY     71  12  10 SW6G16    30.32F
ANDREWS        FAIR      74  16  11 W15       30.20F
ARTESIA        SUNNY     75  18  11 CALM      30.16F
BIG SPRING     SUNNY     73  25  17 SW16      30.20F
CARLSBAD       SUNNY     75  19  12 S8        30.16F
DRYDEN           N/A     78  19  11 S15       30.20S
FORT STOCKTON  SUNNY     74  24  15 N6        30.21F
GUAD PASS      SUNNY     65  14  14 W23       30.29S
HOBBS          SUNNY     72   9   8 SW13G18   30.20F
MARFA          SUNNY     68  14  12 SW12      30.30S
MIDLAND AIRPK  SUNNY     74  19  12 SW14      30.21S
MIDLAND INTL   SUNNY     74  19  12 SW12      30.20F
ODESSA         SUNNY     74  18  12 SW13      30.21F
PECOS          SUNNY     76  24  14 CALM      30.19F
PRESIDIO       FAIR      74  19  12 W3        30.23S
SEMINOLE       SUNNY     74  19  12 SW10G23   30.20S
SNYDER           N/A     76  21  12 SW20      30.16S
WINK           SUNNY     75  20  12 SW9       30.18F
$$
...OTHER STATIONS IN TEXAS...

CITY           SKY/WX    TMP DP  RH WIND       PRES   REMARKS
ABILENE        SUNNY     76  23  14 SW14G23   30.13F
AMARILLO       SUNNY     77  11   8 W13       30.07F
AUSTIN         SUNNY     73  33  23 S12       30.21F
BROWNSVILLE    SUNNY     73  35  25 S16       30.30S
CORPUS CHRISTI MOSUNNY   76  39  26 SE17      30.26S
DALLAS FTW     SUNNY     74  28  18 SW18      30.08F
DEL RIO        SUNNY     79  24  13 SE6       30.19F
EL PASO        SUNNY     71  13  10 CALM      30.24F
HOUSTON INT    SUNNY     69  32  25 SW8       30.25S
LUBBOCK        SUNNY     76  14   9 W21       30.12F
SAN ANGELO     SUNNY     78  19  11 W18       30.18S
SAN ANTONIO    SUNNY     74  30  19 S12G17    30.23F
WACO           SUNNY     73  32  22 SW12      30.16F
WICHITA FALLS  NOT AVBL
$$
...OTHER LOCATIONS IN NEW MEXICO...

CITY           SKY/WX    TMP DP  RH WIND       PRES   REMARKS
ALAMAGORDO     SUNNY     68  14  12 NW6       30.26F
ALBUQUERQUE    MOSUNNY   62  16  16 CALM      30.30F
CANNON AFB     SUNNY     74   6   7 W20       30.13F
CLOVIS         SUNNY     73  18  12 W14       30.14F
HOLLOMAN AFB   NOT AVBL
ROSWELL        SUNNY     74  18  12 S13       30.16F
RUIDOSO        SUNNY     57   9  14 NW14G21   30.33F
SANTA FE       SUNNY     60  17  18 W9        30.30F
TRUTH OR CONSE SUNNY     67  14  13 SW7       30.26F
TUCUMCARI      SUNNY     78   0   5 W10       30.08F
$$

USA.gov is the U.S. government's official web portal to all federal, state and local government web resources and services.